This is the latest recevied weather packets stored in our database for station/object F4ETJ-1. If no packets are shown the sender has not sent any weather packets the latest 10 day(s).
| Time | Temp. | Humidity | Pressure | Rain* | Wind** | Luminosity | Snow |
|---|---|---|---|---|---|---|---|
| 1777619434 | 15° C | 96% | 1019.3 hPa | 0 mm | - | - | - |
| 1777619074 | 15° C | 96% | 1019.2 hPa | 0 mm | - | - | - |
| 1777618713 | 14.44° C | 96% | 1019.2 hPa | 0 mm | - | - | - |
| 1777618353 | 14.44° C | 96% | 1019.1 hPa | 0 mm | - | - | - |
| 1777617992 | 14.44° C | 96% | 1019.1 hPa | 0 mm | - | - | - |
| 1777617632 | 13.89° C | 97% | 1019.1 hPa | 0 mm | - | - | - |
| 1777617271 | 13.89° C | 97% | 1019.2 hPa | 0 mm | - | - | - |
| 1777616912 | 13.33° C | 96% | 1019.2 hPa | 0 mm | - | - | - |
| 1777616552 | 13.33° C | 97% | 1019.2 hPa | 0 mm | - | - | - |
| 1777616191 | 13.33° C | 97% | 1019.3 hPa | 0 mm | - | - | - |
| 1777615831 | 12.78° C | 97% | 1019.2 hPa | 0 mm | - | - | - |
| 1777615470 | 12.22° C | 97% | 1019.2 hPa | 0 mm | - | - | - |
| 1777615110 | 12.22° C | 96% | 1019.2 hPa | 0 mm | - | - | - |
| 1777614749 | 11.67° C | 96% | 1019.2 hPa | 0 mm | - | - | - |
| 1777614389 | 11.67° C | 96% | 1019.2 hPa | 0 mm | - | - | - |
| 1777614029 | 11.67° C | 96% | 1019.1 hPa | 0 mm | - | - | - |
| 1777613668 | 11.67° C | 96% | 1019.1 hPa | 0 mm | - | - | - |
| 1777613308 | 11.67° C | 96% | 1019 hPa | 0 mm | - | - | - |
| 1777612948 | 11.67° C | 96% | 1019 hPa | 0 mm | - | - | - |
| 1777612588 | 11.67° C | 96% | 1018.8 hPa | 0 mm | - | - | - |
| 1777612227 | 11.67° C | 96% | 1018.8 hPa | 0 mm | - | - | - |
| 1777591784 | 12.22° C | 95% | 1018 hPa | 0 mm | - | - | - |
| 1777591423 | 12.22° C | 95% | 1018.1 hPa | 0 mm | - | - | - |
| 1777591063 | 12.22° C | 96% | 1018.1 hPa | 0 mm | - | - | - |
| 1777590703 | 12.22° C | 95% | 1018 hPa | 0 mm | - | - | - |
* Rain latest hour (hover to see other rain measurements)
** Current wind speed in m/s (hover to see current wind gust speed)